Tracking 24120 objects as of 5-Dec-2021
HD Live streaming from Space Station
objects crossing your sky now

ARIANE 3 DEB

Track ARIANE 3 DEB now!
10-day predictions


NORAD ID: 20488
Int'l Code: 1988-063F
Perigee: 1,145.5 km
Apogee: 15,136.4 km
Inclination: 7.3 °
Period: 290.0 minutes
Semi major axis: 14511 km
RCS: 7.5119 m2 (large)
Launch date: July 21, 1988
Source: France (FR)
Launch site: FRENCH GUIANA (FRGUI)

Note: This is SATELLITE DEBRIS
aabbcc
Your satellite tracking list
Your tracking list is empty




NASA's NSSDC Master Catalog

Two Line Element Set (TLE):
1 20488U 88063F   21338.86582954 -.00000005  00000-0  00000-0 0  9997
2 20488   7.2603 321.9643 4820448 148.8756 251.7628  4.96608151573421
Source of the keplerian elements: AFSPC